JAS-2 (FO-29)

Last updated on Thu Nov 21 2024 00:03:02 GMT+0000 (Coordinated Universal Time)

1 24278U 96046B 24325.20289447 .00000033 00000+0 66786-4 0 9992 2 24278 98.5862 239.4257 0350645 144.0422 218.4869 13.53222282395785
UTC large
Height (km)
Speed (km/s)
/
Latitude / Longitude
Inclination (degrees)
Orbital Period (minutes)
Azimuth
Elevation
Range (km)
Doppler Factor

Next 0 passes for location: London (51.5072 / 0.1276)

Sorry there are no passes over London.